TimePST,TemperatureF,Dew PointF,Humidity,Sea Level PressureIn,VisibilityMPH,Wind Direction,Wind SpeedMPH,Gust SpeedMPH,PrecipitationIn,Events,Conditions,WindDirDegrees,DateUTC
12:56 AM,39.9,10.0,29,30.21,10.0,NE,9.2,-,N/A,,Clear,50,2013-01-03 08:56:00
1:56 AM,39.9,8.1,27,30.23,10.0,East,5.8,-,N/A,,Clear,80,2013-01-03 09:56:00
2:56 AM,37.9,8.1,29,30.24,10.0,East,5.8,-,N/A,,Clear,100,2013-01-03 10:56:00
3:56 AM,37.0,8.1,30,30.25,10.0,Calm,Calm,-,N/A,,Clear,0,2013-01-03 11:56:00
4:56 AM,33.8,10.4,38,30.24,10.0,SW,8.1,-,N/A,,Clear,220,2013-01-03 12:56:00
5:56 AM,32.0,12.0,44,30.28,10.0,SSW,4.6,-,N/A,,Clear,210,2013-01-03 13:56:00
6:56 AM,32.0,12.0,44,30.30,10.0,Calm,Calm,-,N/A,,Clear,0,2013-01-03 14:56:00
7:56 AM,36.0,12.0,37,30.32,10.0,SSW,6.9,-,N/A,,Clear,200,2013-01-03 15:56:00
8:56 AM,39.9,8.1,27,30.33,10.0,SSW,4.6,-,N/A,,Clear,210,2013-01-03 16:56:00
9:56 AM,44.1,6.1,21,30.33,10.0,South,4.6,-,N/A,,Clear,170,2013-01-03 17:56:00
10:56 AM,46.9,5.0,18,30.30,10.0,SE,3.5,-,N/A,,Clear,130,2013-01-03 18:56:00
11:56 AM,48.9,3.9,16,30.27,10.0,Calm,Calm,-,N/A,,Clear,0,2013-01-03 19:56:00
12:56 PM,51.1,3.9,15,30.24,10.0,Calm,Calm,-,N/A,,Clear,0,2013-01-03 20:56:00
1:56 PM,51.1,1.0,13,30.24,10.0,Variable,4.6,-,N/A,,Clear,0,2013-01-03 21:56:00
2:56 PM,53.1,-0.9,11,30.24,10.0,Variable,3.5,-,N/A,,Clear,0,2013-01-03 22:56:00
3:56 PM,52.0,-2.0,11,30.25,10.0,Variable,3.5,-,N/A,,Clear,0,2013-01-03 23:56:00
4:56 PM,48.9,-0.0,13,30.26,10.0,Calm,Calm,-,N/A,,Clear,0,2013-01-04 00:56:00
5:56 PM,48.0,1.0,14,30.27,10.0,South,3.5,-,N/A,,Clear,180,2013-01-04 01:56:00
6:56 PM,43.0,6.1,22,30.27,10.0,WSW,8.1,-,N/A,,Clear,250,2013-01-04 02:56:00
7:56 PM,41.0,5.0,23,30.27,10.0,WSW,8.1,-,N/A,,Clear,240,2013-01-04 03:56:00
8:56 PM,39.0,6.1,26,30.27,10.0,South,6.9,-,N/A,,Clear,190,2013-01-04 04:56:00
9:56 PM,37.9,8.1,29,30.28,10.0,SW,3.5,-,N/A,,Clear,220,2013-01-04 05:56:00
10:56 PM,37.0,8.1,30,30.28,10.0,SSW,5.8,-,N/A,,Clear,210,2013-01-04 06:56:00
11:56 PM,37.0,8.1,30,30.28,10.0,South,4.6,-,N/A,,Clear,170,2013-01-04 07:56:00